Location: Unspecified
(43.5460°N, 0.0000°E)
Time: 04:35:00
(UTC+00:00)

OPS 1127 - Visible Passes

Search period start: 04 April 2026 00:00
Search period end: 14 April 2026 00:00
Orbit: 761 x 826 km, 98.4° (Epoch: 29 March)

Date Brightness Start Highest point End Pass type
(mag) Time Alt. Az. Time Alt. Az. Time Alt. Az.
4 Apr 7.6 19:18:23 10° NE 19:22:17 22° E 19:26:11 10° SE visible
4 Apr 7.5 20:57:14 10° N 21:02:04 46° WNW 21:06:54 10° SW visible
5 Apr 6.5 20:28:30 10° NNE 20:33:36 84° WNW 20:38:41 10° SSW visible
5 Apr 9.4 22:10:33 10° NW 22:12:21 12° WNW 22:14:10 10° WNW visible
6 Apr 6.6 20:00:01 10° NNE 20:05:00 54° E 20:09:59 10° S visible
6 Apr 8.9 21:40:30 10° NNW 21:44:11 21° WNW 21:47:52 10° WSW visible
7 Apr 7.3 19:31:52 10° NE 19:36:17 29° E 19:40:43 10° SSE visible
7 Apr 8.0 21:11:18 10° N 21:15:53 35° WNW 21:20:28 10° SW visible
8 Apr 8.0 19:04:19 10° NE 19:07:28 16° E 19:10:36 10° SE visible
8 Apr 6.9 20:42:26 10° N 20:47:27 63° WNW 20:52:29 10° SSW visible
9 Apr 6.4 20:13:49 10° NNE 20:18:55 73° ESE 20:24:01 10° S visible
9 Apr 9.2 21:54:55 10° NNW 21:57:54 16° WNW 22:00:53 10° W visible
10 Apr 6.9 19:45:29 10° NNE 19:50:15 39° E 19:55:03 10° SSE visible
10 Apr 8.5 21:25:26 10° N 21:29:39 27° WNW 21:33:53 10° WSW visible
11 Apr 7.7 19:17:34 10° NE 19:21:29 22° E 19:25:26 10° SE visible
11 Apr 7.5 20:56:25 10° N 21:01:17 47° WNW 21:06:10 10° SW visible
12 Apr 6.5 20:27:41 10° NNE 20:32:48 84° WNW 20:37:56 10° SSW visible
12 Apr 9.4 22:09:40 10° NW 22:11:35 12° WNW 22:13:30 10° W visible
13 Apr 6.6 19:59:12 10° NNE 20:04:12 54° E 20:09:14 10° S visible
13 Apr 8.9 21:39:40 10° NNW 21:43:23 21° WNW 21:47:08 10° WSW visible
